owner,sensor,date,latitude,longitude,vertical_datum,sea_water_practical_salinity,qcFlag 
SCCF RECON,ioos:station:SCCF:53:1,2010-06-01T00:00:00Z,26.6493,-81.8810,2.307,0.26,1111122 
SCCF RECON,ioos:station:SCCF:53:1,2010-06-01T01:00:00Z,26.6493,-81.8810,2.258,0.26,1111122 
SCCF RECON,ioos:station:SCCF:53:1,2010-06-01T02:00:00Z,26.6493,-81.8810,2.2,0.26,1111122 
SCCF RECON,ioos:station:SCCF:53:1,2010-06-01T03:00:00Z,26.6493,-81.8810,2.15,0.26,1111122 
SCCF RECON,ioos:station:SCCF:53:1,2010-06-01T04:00:00Z,26.6493,-81.8810,2.09,0.26,1111122 
SCCF RECON,ioos:station:SCCF:53:1,2010-06-01T05:00:00Z,26.6493,-81.8810,2.04,0.25,1111122 
SCCF RECON,ioos:station:SCCF:53:1,2010-06-01T06:00:00Z,26.6493,-81.8810,1.99,0.25,1111122 
SCCF RECON,ioos:station:SCCF:53:1,2010-06-01T07:00:00Z,26.6493,-81.8810,1.96,0.25,1111122 
SCCF RECON,ioos:station:SCCF:53:1,2010-06-01T08:00:00Z,26.6493,-81.8810,1.98,0.25,1111122 
SCCF RECON,ioos:station:SCCF:53:1,2010-06-01T09:00:00Z,26.6493,-81.8810,2.03,0.25,1111122 
SCCF RECON,ioos:station:SCCF:53:1,2010-06-01T10:00:00Z,26.6493,-81.8810,2.07,0.25,1111122 
SCCF RECON,ioos:station:SCCF:53:1,2010-06-01T11:00:00Z,26.6493,-81.8810,2.12,0.25,1111122 
SCCF RECON,ioos:station:SCCF:53:1,2010-06-01T12:00:00Z,26.6493,-81.8810,2.17,0.25,1111122 
SCCF RECON,ioos:station:SCCF:53:1,2010-06-01T13:00:00Z,26.6493,-81.8810,2.188,0.26,1111122 
SCCF RECON,ioos:station:SCCF:53:1,2010-06-01T14:00:00Z,26.6493,-81.8810,2.182,0.26,1111122 
SCCF RECON,ioos:station:SCCF:53:1,2010-06-01T15:00:00Z,26.6493,-81.8810,2.155,0.26,1111122 
SCCF RECON,ioos:station:SCCF:53:1,2010-06-01T16:00:00Z,26.6493,-81.8810,2.126,0.26,1111122 
SCCF RECON,ioos:station:SCCF:53:1,2010-06-01T17:00:00Z,26.6493,-81.8810,2.14,0.25,1111122 
SCCF RECON,ioos:station:SCCF:53:1,2010-06-01T18:00:00Z,26.6493,-81.8810,2.193,0.26,1111122 
SCCF RECON,ioos:station:SCCF:53:1,2010-06-01T19:00:00Z,26.6493,-81.8810,2.246,0.26,1111122 
SCCF RECON,ioos:station:SCCF:53:1,2010-06-01T20:00:00Z,26.6493,-81.8810,2.29,0.26,1111122 
SCCF RECON,ioos:station:SCCF:53:1,2010-06-01T21:00:00Z,26.6493,-81.8810,2.34,0.26,1111122 
SCCF RECON,ioos:station:SCCF:53:1,2010-06-01T22:00:00Z,26.6493,-81.8810,2.37,0.26,1111122 
SCCF RECON,ioos:station:SCCF:53:1,2010-06-01T23:00:00Z,26.6493,-81.8810,2.37,0.26,1111122 
SCCF RECON,ioos:station:SCCF:53:1,2010-06-02T00:00:00Z,26.6493,-81.8810,2.33,0.26,1111122 
SCCF RECON,ioos:station:SCCF:53:1,2010-06-02T01:00:00Z,26.6493,-81.8810,2.28,0.26,1111122 
SCCF RECON,ioos:station:SCCF:53:1,2010-06-02T02:00:00Z,26.6493,-81.8810,2.22,0.26,1111122 
SCCF RECON,ioos:station:SCCF:53:1,2010-06-02T03:00:00Z,26.6493,-81.8810,2.18,0.26,1111122 
SCCF RECON,ioos:station:SCCF:53:1,2010-06-02T04:00:00Z,26.6493,-81.8810,2.12,0.26,1111122 
SCCF RECON,ioos:station:SCCF:53:1,2010-06-02T05:00:00Z,26.6493,-81.8810,2.06,0.26,1111122 
SCCF RECON,ioos:station:SCCF:53:1,2010-06-02T06:00:00Z,26.6493,-81.8810,2.01,0.26,1111122 
SCCF RECON,ioos:station:SCCF:53:1,2010-06-02T07:00:00Z,26.6493,-81.8810,1.97,0.26,1111122 
SCCF RECON,ioos:station:SCCF:53:1,2010-06-02T08:00:00Z,26.6493,-81.8810,1.97,0.26,1111122 
SCCF RECON,ioos:station:SCCF:53:1,2010-06-02T09:00:00Z,26.6493,-81.8810,2.015,0.26,1111122 
SCCF RECON,ioos:station:SCCF:53:1,2010-06-02T10:00:00Z,26.6493,-81.8810,2.07,0.26,1111122 
SCCF RECON,ioos:station:SCCF:53:1,2010-06-02T11:00:00Z,26.6493,-81.8810,2.12,0.26,1111122 
SCCF RECON,ioos:station:SCCF:53:1,2010-06-02T12:00:00Z,26.6493,-81.8810,2.17,0.26,1111122 
SCCF RECON,ioos:station:SCCF:53:1,2010-06-02T13:00:00Z,26.6493,-81.8810,2.2,0.26,1111122 
SCCF RECON,ioos:station:SCCF:53:1,2010-06-02T14:00:00Z,26.6493,-81.8810,2.204,0.26,1111122 
SCCF RECON,ioos:station:SCCF:53:1,2010-06-02T15:00:00Z,26.6493,-81.8810,2.173,0.26,1111122 
SCCF RECON,ioos:station:SCCF:53:1,2010-06-02T16:00:00Z,26.6493,-81.8810,2.14,0.26,1111122 
SCCF RECON,ioos:station:SCCF:53:1,2010-06-02T17:00:00Z,26.6493,-81.8810,2.12,0.26,1111122 
SCCF RECON,ioos:station:SCCF:53:1,2010-06-02T18:00:00Z,26.6493,-81.8810,2.11,0.26,1111122 
SCCF RECON,ioos:station:SCCF:53:1,2010-06-02T19:00:00Z,26.6493,-81.8810,2.14,0.26,1111122 
SCCF RECON,ioos:station:SCCF:53:1,2010-06-02T20:00:00Z,26.6493,-81.8810,2.202,0.26,1111122 
SCCF RECON,ioos:station:SCCF:53:1,2010-06-02T21:00:00Z,26.6493,-81.8810,2.25,0.26,1111122 
SCCF RECON,ioos:station:SCCF:53:1,2010-06-02T22:00:00Z,26.6493,-81.8810,2.297,0.26,1111122 
SCCF RECON,ioos:station:SCCF:53:1,2010-06-02T23:00:00Z,26.6493,-81.8810,2.34,0.26,1111122 
SCCF RECON,ioos:station:SCCF:53:1,2010-06-03T00:00:00Z,26.6493,-81.8810,2.31,0.26,1111122 
SCCF RECON,ioos:station:SCCF:53:1,2010-06-03T01:00:00Z,26.6493,-81.8810,2.26,0.26,1111122 
SCCF RECON,ioos:station:SCCF:53:1,2010-06-03T02:00:00Z,26.6493,-81.8810,2.21,0.26,1111122 
SCCF RECON,ioos:station:SCCF:53:1,2010-06-03T03:00:00Z,26.6493,-81.8810,2.17,0.26,1111122 
SCCF RECON,ioos:station:SCCF:53:1,2010-06-03T04:00:00Z,26.6493,-81.8810,2.11,0.26,1111122 
SCCF RECON,ioos:station:SCCF:53:1,2010-06-03T05:00:00Z,26.6493,-81.8810,2.06,0.26,1111122 
SCCF RECON,ioos:station:SCCF:53:1,2010-06-03T06:00:00Z,26.6493,-81.8810,2.01,0.26,1111122 
SCCF RECON,ioos:station:SCCF:53:1,2010-06-03T07:00:00Z,26.6493,-81.8810,1.97,0.26,1111122 
SCCF RECON,ioos:station:SCCF:53:1,2010-06-03T08:00:00Z,26.6493,-81.8810,1.96,0.25,1111122 
SCCF RECON,ioos:station:SCCF:53:1,2010-06-03T09:00:00Z,26.6493,-81.8810,2.0,0.25,1111122 
SCCF RECON,ioos:station:SCCF:53:1,2010-06-03T10:00:00Z,26.6493,-81.8810,2.059,0.26,1111122 
SCCF RECON,ioos:station:SCCF:53:1,2010-06-03T11:00:00Z,26.6493,-81.8810,2.11,0.26,1111122 
SCCF RECON,ioos:station:SCCF:53:1,2010-06-03T12:00:00Z,26.6493,-81.8810,2.175,0.26,1111122 
SCCF RECON,ioos:station:SCCF:53:1,2010-06-03T13:00:00Z,26.6493,-81.8810,2.221,0.26,1111122 
SCCF RECON,ioos:station:SCCF:53:1,2010-06-03T14:00:00Z,26.6493,-81.8810,2.252,0.26,1111122 
SCCF RECON,ioos:station:SCCF:53:1,2010-06-03T15:00:00Z,26.6493,-81.8810,2.289,0.26,1111122 
SCCF RECON,ioos:station:SCCF:53:1,2010-06-03T16:00:00Z,26.6493,-81.8810,2.281,0.26,1111122 
SCCF RECON,ioos:station:SCCF:53:1,2010-06-03T17:00:00Z,26.6493,-81.8810,2.241,0.26,1111122 
SCCF RECON,ioos:station:SCCF:53:1,2010-06-03T18:00:00Z,26.6493,-81.8810,2.213,0.26,1111122 
SCCF RECON,ioos:station:SCCF:53:1,2010-06-03T19:00:00Z,26.6493,-81.8810,2.18,0.26,1111122 
SCCF RECON,ioos:station:SCCF:53:1,2010-06-03T20:00:00Z,26.6493,-81.8810,2.192,0.26,1111122 
SCCF RECON,ioos:station:SCCF:53:1,2010-06-03T21:00:00Z,26.6493,-81.8810,2.24,0.26,1111122 
SCCF RECON,ioos:station:SCCF:53:1,2010-06-03T22:00:00Z,26.6493,-81.8810,2.3,0.26,1111122 
SCCF RECON,ioos:station:SCCF:53:1,2010-06-03T23:00:00Z,26.6493,-81.8810,2.324,0.26,1111122 
SCCF RECON,ioos:station:SCCF:53:1,2010-06-04T00:00:00Z,26.6493,-81.8810,2.34,0.26,1111122 
SCCF RECON,ioos:station:SCCF:53:1,2010-06-04T01:00:00Z,26.6493,-81.8810,2.32,0.26,1111122 
SCCF RECON,ioos:station:SCCF:53:1,2010-06-04T02:00:00Z,26.6493,-81.8810,2.28,0.26,1111122 
SCCF RECON,ioos:station:SCCF:53:1,2010-06-04T03:00:00Z,26.6493,-81.8810,2.224,0.25,1111122 
SCCF RECON,ioos:station:SCCF:53:1,2010-06-04T04:00:00Z,26.6493,-81.8810,2.18,0.25,1111122 
SCCF RECON,ioos:station:SCCF:53:1,2010-06-04T05:00:00Z,26.6493,-81.8810,2.13,0.25,1111122 
SCCF RECON,ioos:station:SCCF:53:1,2010-06-04T06:00:00Z,26.6493,-81.8810,2.083,0.25,1111122 
SCCF RECON,ioos:station:SCCF:53:1,2010-06-04T07:00:00Z,26.6493,-81.8810,2.04,0.24,1111122 
SCCF RECON,ioos:station:SCCF:53:1,2010-06-04T08:00:00Z,26.6493,-81.8810,2.007,0.25,1111122 
SCCF RECON,ioos:station:SCCF:53:1,2010-06-04T09:00:00Z,26.6493,-81.8810,2.05,0.25,1111122 
SCCF RECON,ioos:station:SCCF:53:1,2010-06-04T10:00:00Z,26.6493,-81.8810,2.13,0.25,1111122 
SCCF RECON,ioos:station:SCCF:53:1,2010-06-04T11:00:00Z,26.6493,-81.8810,2.165,0.25,1111122 
SCCF RECON,ioos:station:SCCF:53:1,2010-06-04T12:00:00Z,26.6493,-81.8810,2.22,0.25,1111122 
SCCF RECON,ioos:station:SCCF:53:1,2010-06-04T13:00:00Z,26.6493,-81.8810,2.303,0.25,1111122 
SCCF RECON,ioos:station:SCCF:53:1,2010-06-04T14:00:00Z,26.6493,-81.8810,2.357,0.25,1111122 
SCCF RECON,ioos:station:SCCF:53:1,2010-06-04T15:00:00Z,26.6493,-81.8810,2.387,0.25,1111122 
SCCF RECON,ioos:station:SCCF:53:1,2010-06-04T16:00:00Z,26.6493,-81.8810,2.391,0.26,1111122 
SCCF RECON,ioos:station:SCCF:53:1,2010-06-04T17:00:00Z,26.6493,-81.8810,2.379,0.25,1111122 
SCCF RECON,ioos:station:SCCF:53:1,2010-06-04T18:00:00Z,26.6493,-81.8810,2.37,0.25,1111122 
SCCF RECON,ioos:station:SCCF:53:1,2010-06-04T19:00:00Z,26.6493,-81.8810,2.34,0.25,1111122 
SCCF RECON,ioos:station:SCCF:53:1,2010-06-04T20:00:00Z,26.6493,-81.8810,2.301,0.25,1111122 
SCCF RECON,ioos:station:SCCF:53:1,2010-06-04T21:00:00Z,26.6493,-81.8810,2.268,0.25,1111122 
SCCF RECON,ioos:station:SCCF:53:1,2010-06-04T22:00:00Z,26.6493,-81.8810,2.268,0.24,1111122 
SCCF RECON,ioos:station:SCCF:53:1,2010-06-04T23:00:00Z,26.6493,-81.8810,2.298,0.24,1111122 
SCCF RECON,ioos:station:SCCF:53:1,2010-06-05T00:00:00Z,26.6493,-81.8810,2.33,0.26,1111122 
SCCF RECON,ioos:station:SCCF:53:1,2010-06-05T01:00:00Z,26.6493,-81.8810,2.34,0.25,1111122 
SCCF RECON,ioos:station:SCCF:53:1,2010-06-05T02:00:00Z,26.6493,-81.8810,2.329,0.25,1111122 
SCCF RECON,ioos:station:SCCF:53:1,2010-06-05T03:00:00Z,26.6493,-81.8810,2.28,0.25,1111122 
SCCF RECON,ioos:station:SCCF:53:1,2010-06-05T04:00:00Z,26.6493,-81.8810,2.23,0.25,1111122 
SCCF RECON,ioos:station:SCCF:53:1,2010-06-05T05:00:00Z,26.6493,-81.8810,2.18,0.24,1111122 
SCCF RECON,ioos:station:SCCF:53:1,2010-06-05T06:00:00Z,26.6493,-81.8810,2.14,0.23,1111122 
SCCF RECON,ioos:station:SCCF:53:1,2010-06-05T07:00:00Z,26.6493,-81.8810,2.1,0.23,1111122 
SCCF RECON,ioos:station:SCCF:53:1,2010-06-05T08:00:00Z,26.6493,-81.8810,2.06,0.23,1111122 
SCCF RECON,ioos:station:SCCF:53:1,2010-06-05T09:00:00Z,26.6493,-81.8810,2.04,0.23,1111122 
SCCF RECON,ioos:station:SCCF:53:1,2010-06-05T10:00:00Z,26.6493,-81.8810,2.07,0.23,1111122 
SCCF RECON,ioos:station:SCCF:53:1,2010-06-05T11:00:00Z,26.6493,-81.8810,2.13,0.23,1111122 
SCCF RECON,ioos:station:SCCF:53:1,2010-06-05T12:00:00Z,26.6493,-81.8810,2.182,0.23,1111122 
SCCF RECON,ioos:station:SCCF:53:1,2010-06-05T13:00:00Z,26.6493,-81.8810,2.248,0.24,1111122 
SCCF RECON,ioos:station:SCCF:53:1,2010-06-05T14:00:00Z,26.6493,-81.8810,2.31,0.23,1111122 
SCCF RECON,ioos:station:SCCF:53:1,2010-06-05T15:00:00Z,26.6493,-81.8810,2.362,0.24,1111122 
SCCF RECON,ioos:station:SCCF:53:1,2010-06-05T16:00:00Z,26.6493,-81.8810,2.376,0.24,1111122 
SCCF RECON,ioos:station:SCCF:53:1,2010-06-05T17:00:00Z,26.6493,-81.8810,2.357,0.24,1111122 
SCCF RECON,ioos:station:SCCF:53:1,2010-06-05T18:00:00Z,26.6493,-81.8810,2.302,0.24,1111122 
SCCF RECON,ioos:station:SCCF:53:1,2010-06-05T19:00:00Z,26.6493,-81.8810,2.244,0.24,1111122 
SCCF RECON,ioos:station:SCCF:53:1,2010-06-05T20:00:00Z,26.6493,-81.8810,2.205,0.23,1111122 
SCCF RECON,ioos:station:SCCF:53:1,2010-06-05T21:00:00Z,26.6493,-81.8810,2.169,0.23,1111122 
SCCF RECON,ioos:station:SCCF:53:1,2010-06-05T22:00:00Z,26.6493,-81.8810,2.156,0.23,1111122 
SCCF RECON,ioos:station:SCCF:53:1,2010-06-05T23:00:00Z,26.6493,-81.8810,2.173,0.24,1111122 
SCCF RECON,ioos:station:SCCF:53:1,2010-06-06T00:00:00Z,26.6493,-81.8810,2.21,0.24,1111122 
SCCF RECON,ioos:station:SCCF:53:1,2010-06-06T01:00:00Z,26.6493,-81.8810,2.23,0.24,1111122 
SCCF RECON,ioos:station:SCCF:53:1,2010-06-06T02:00:00Z,26.6493,-81.8810,2.25,0.25,1111122 
SCCF RECON,ioos:station:SCCF:53:1,2010-06-06T03:00:00Z,26.6493,-81.8810,2.25,0.24,1111122 
SCCF RECON,ioos:station:SCCF:53:1,2010-06-06T04:00:00Z,26.6493,-81.8810,2.22,0.24,1111122 
SCCF RECON,ioos:station:SCCF:53:1,2010-06-06T05:00:00Z,26.6493,-81.8810,2.18,0.23,1111122 
SCCF RECON,ioos:station:SCCF:53:1,2010-06-06T06:00:00Z,26.6493,-81.8810,2.14,0.23,1111122 
SCCF RECON,ioos:station:SCCF:53:1,2010-06-06T07:00:00Z,26.6493,-81.8810,2.1,0.23,1111122 
SCCF RECON,ioos:station:SCCF:53:1,2010-06-06T08:00:00Z,26.6493,-81.8810,2.06,0.22,1111122 
SCCF RECON,ioos:station:SCCF:53:1,2010-06-06T09:00:00Z,26.6493,-81.8810,2.02,0.22,1111122 
SCCF RECON,ioos:station:SCCF:53:1,2010-06-06T10:00:00Z,26.6493,-81.8810,2.01,0.22,1111122 
SCCF RECON,ioos:station:SCCF:53:1,2010-06-06T11:00:00Z,26.6493,-81.8810,2.05,0.22,1111122 
SCCF RECON,ioos:station:SCCF:53:1,2010-06-06T12:00:00Z,26.6493,-81.8810,2.12,0.22,1111122 
SCCF RECON,ioos:station:SCCF:53:1,2010-06-06T13:00:00Z,26.6493,-81.8810,2.17,0.22,1111122 
SCCF RECON,ioos:station:SCCF:53:1,2010-06-06T14:00:00Z,26.6493,-81.8810,2.22,0.22,1111122 
SCCF RECON,ioos:station:SCCF:53:1,2010-06-06T15:00:00Z,26.6493,-81.8810,2.26,0.23,1111122 
SCCF RECON,ioos:station:SCCF:53:1,2010-06-06T16:00:00Z,26.6493,-81.8810,2.28,0.23,1111122 
SCCF RECON,ioos:station:SCCF:53:1,2010-06-06T17:00:00Z,26.6493,-81.8810,2.28,0.23,1111122 
SCCF RECON,ioos:station:SCCF:53:1,2010-06-06T18:00:00Z,26.6493,-81.8810,2.24,0.23,1111122 
SCCF RECON,ioos:station:SCCF:53:1,2010-06-06T19:00:00Z,26.6493,-81.8810,2.182,0.22,1111122 
SCCF RECON,ioos:station:SCCF:53:1,2010-06-06T20:00:00Z,26.6493,-81.8810,2.128,0.22,1111122 
SCCF RECON,ioos:station:SCCF:53:1,2010-06-06T21:00:00Z,26.6493,-81.8810,2.08,0.23,1111122 
SCCF RECON,ioos:station:SCCF:53:1,2010-06-06T22:00:00Z,26.6493,-81.8810,2.039,0.23,1111122 
SCCF RECON,ioos:station:SCCF:53:1,2010-06-06T23:00:00Z,26.6493,-81.8810,2.019,0.23,1111122 
SCCF RECON,ioos:station:SCCF:53:1,2010-06-07T00:00:00Z,26.6493,-81.8810,2.03,0.23,1111122 
SCCF RECON,ioos:station:SCCF:53:1,2010-06-07T01:00:00Z,26.6493,-81.8810,2.08,0.23,1111122 
SCCF RECON,ioos:station:SCCF:53:1,2010-06-07T02:00:00Z,26.6493,-81.8810,2.13,0.23,1111122 
SCCF RECON,ioos:station:SCCF:53:1,2010-06-07T03:00:00Z,26.6493,-81.8810,2.18,0.23,1111122 
SCCF RECON,ioos:station:SCCF:53:1,2010-06-07T04:00:00Z,26.6493,-81.8810,2.22,0.23,1111122 
SCCF RECON,ioos:station:SCCF:53:1,2010-06-07T05:00:00Z,26.6493,-81.8810,2.22,0.23,1111122 
SCCF RECON,ioos:station:SCCF:53:1,2010-06-07T06:00:00Z,26.6493,-81.8810,2.18,0.23,1111122 
SCCF RECON,ioos:station:SCCF:53:1,2010-06-07T07:00:00Z,26.6493,-81.8810,2.13,0.23,1111122 
SCCF RECON,ioos:station:SCCF:53:1,2010-06-07T08:00:00Z,26.6493,-81.8810,2.1,0.23,1111122 
SCCF RECON,ioos:station:SCCF:53:1,2010-06-07T09:00:00Z,26.6493,-81.8810,2.08,0.23,1111122 
SCCF RECON,ioos:station:SCCF:53:1,2010-06-07T10:00:00Z,26.6493,-81.8810,2.06,0.23,1111122 
SCCF RECON,ioos:station:SCCF:53:1,2010-06-07T11:00:00Z,26.6493,-81.8810,2.06,0.23,1111122 
SCCF RECON,ioos:station:SCCF:53:1,2010-06-07T12:00:00Z,26.6493,-81.8810,2.11,0.23,1111122 
SCCF RECON,ioos:station:SCCF:53:1,2010-06-07T13:00:00Z,26.6493,-81.8810,2.172,0.23,1111122 
SCCF RECON,ioos:station:SCCF:53:1,2010-06-07T14:00:00Z,26.6493,-81.8810,2.221,0.23,1111122 
SCCF RECON,ioos:station:SCCF:53:1,2010-06-07T15:00:00Z,26.6493,-81.8810,2.28,0.24,1111122 
SCCF RECON,ioos:station:SCCF:53:1,2010-06-07T16:00:00Z,26.6493,-81.8810,2.32,0.23,1111122 
SCCF RECON,ioos:station:SCCF:53:1,2010-06-07T17:00:00Z,26.6493,-81.8810,2.339,0.23,1111122 
SCCF RECON,ioos:station:SCCF:53:1,2010-06-07T18:00:00Z,26.6493,-81.8810,2.297,0.23,1111122 
SCCF RECON,ioos:station:SCCF:53:1,2010-06-07T19:00:00Z,26.6493,-81.8810,2.24,0.24,1111122 
SCCF RECON,ioos:station:SCCF:53:1,2010-06-07T20:00:00Z,26.6493,-81.8810,2.183,0.23,1111122 
SCCF RECON,ioos:station:SCCF:53:1,2010-06-07T21:00:00Z,26.6493,-81.8810,2.127,0.23,1111122 
SCCF RECON,ioos:station:SCCF:53:1,2010-06-07T22:00:00Z,26.6493,-81.8810,2.08,0.23,1111122 
SCCF RECON,ioos:station:SCCF:53:1,2010-06-07T23:00:00Z,26.6493,-81.8810,2.039,0.23,1111122 
SCCF RECON,ioos:station:SCCF:53:1,2010-06-08T00:00:00Z,26.6493,-81.8810,2.003,0.22,1111122 
SCCF RECON,ioos:station:SCCF:53:1,2010-06-08T01:00:00Z,26.6493,-81.8810,2.0,0.22,1111122 
SCCF RECON,ioos:station:SCCF:53:1,2010-06-08T02:00:00Z,26.6493,-81.8810,2.04,0.22,1111122 
SCCF RECON,ioos:station:SCCF:53:1,2010-06-08T03:00:00Z,26.6493,-81.8810,2.08,0.22,1111122 
SCCF RECON,ioos:station:SCCF:53:1,2010-06-08T04:00:00Z,26.6493,-81.8810,2.12,0.22,1111122 
SCCF RECON,ioos:station:SCCF:53:1,2010-06-08T05:00:00Z,26.6493,-81.8810,2.17,0.22,1111122 
SCCF RECON,ioos:station:SCCF:53:1,2010-06-08T06:00:00Z,26.6493,-81.8810,2.19,0.23,1111122 
SCCF RECON,ioos:station:SCCF:53:1,2010-06-08T07:00:00Z,26.6493,-81.8810,2.17,0.22,1111122 
SCCF RECON,ioos:station:SCCF:53:1,2010-06-08T08:00:00Z,26.6493,-81.8810,2.15,0.22,1111122 
SCCF RECON,ioos:station:SCCF:53:1,2010-06-08T09:00:00Z,26.6493,-81.8810,2.13,0.22,1111122 
SCCF RECON,ioos:station:SCCF:53:1,2010-06-08T10:00:00Z,26.6493,-81.8810,2.11,0.23,1111122 
SCCF RECON,ioos:station:SCCF:53:1,2010-06-08T11:00:00Z,26.6493,-81.8810,2.1,0.23,1111122 
SCCF RECON,ioos:station:SCCF:53:1,2010-06-08T12:00:00Z,26.6493,-81.8810,2.121,0.23,1111122 
SCCF RECON,ioos:station:SCCF:53:1,2010-06-08T13:00:00Z,26.6493,-81.8810,2.18,0.23,1111122 
SCCF RECON,ioos:station:SCCF:53:1,2010-06-08T14:00:00Z,26.6493,-81.8810,2.231,0.23,1111122 
SCCF RECON,ioos:station:SCCF:53:1,2010-06-08T15:00:00Z,26.6493,-81.8810,2.29,0.23,1111122 
SCCF RECON,ioos:station:SCCF:53:1,2010-06-08T16:00:00Z,26.6493,-81.8810,2.346,0.23,1111122 
SCCF RECON,ioos:station:SCCF:53:1,2010-06-08T17:00:00Z,26.6493,-81.8810,2.377,0.23,1111122 
SCCF RECON,ioos:station:SCCF:53:1,2010-06-08T18:00:00Z,26.6493,-81.8810,2.35,0.23,1111122 
SCCF RECON,ioos:station:SCCF:53:1,2010-06-08T19:00:00Z,26.6493,-81.8810,2.28,0.23,1111122 
SCCF RECON,ioos:station:SCCF:53:1,2010-06-08T20:00:00Z,26.6493,-81.8810,2.23,0.23,1111122 
SCCF RECON,ioos:station:SCCF:53:1,2010-06-08T21:00:00Z,26.6493,-81.8810,2.172,0.23,1111122 
SCCF RECON,ioos:station:SCCF:53:1,2010-06-08T22:00:00Z,26.6493,-81.8810,2.12,0.23,1111122 
SCCF RECON,ioos:station:SCCF:53:1,2010-06-08T23:00:00Z,26.6493,-81.8810,2.067,0.23,1111122 
SCCF RECON,ioos:station:SCCF:53:1,2010-06-09T00:00:00Z,26.6493,-81.8810,2.022,0.23,1111122 
SCCF RECON,ioos:station:SCCF:53:1,2010-06-09T01:00:00Z,26.6493,-81.8810,1.99,0.23,1111122 
SCCF RECON,ioos:station:SCCF:53:1,2010-06-09T02:00:00Z,26.6493,-81.8810,1.979,0.23,1111122 
SCCF RECON,ioos:station:SCCF:53:1,2010-06-09T03:00:00Z,26.6493,-81.8810,2.001,0.23,1111122 
SCCF RECON,ioos:station:SCCF:53:1,2010-06-09T04:00:00Z,26.6493,-81.8810,2.014,0.23,1111122 
SCCF RECON,ioos:station:SCCF:53:1,2010-06-09T05:00:00Z,26.6493,-81.8810,2.068,0.23,1111122 
SCCF RECON,ioos:station:SCCF:53:1,2010-06-09T06:00:00Z,26.6493,-81.8810,2.1,0.23,1111122 
SCCF RECON,ioos:station:SCCF:53:1,2010-06-09T07:00:00Z,26.6493,-81.8810,2.11,0.23,1111122 
SCCF RECON,ioos:station:SCCF:53:1,2010-06-09T08:00:00Z,26.6493,-81.8810,2.11,0.23,1111122 
SCCF RECON,ioos:station:SCCF:53:1,2010-06-09T09:00:00Z,26.6493,-81.8810,2.09,0.23,1111122 
SCCF RECON,ioos:station:SCCF:53:1,2010-06-09T10:00:00Z,26.6493,-81.8810,2.04,0.23,1111122 
SCCF RECON,ioos:station:SCCF:53:1,2010-06-09T11:00:00Z,26.6493,-81.8810,2.02,0.23,1111122 
SCCF RECON,ioos:station:SCCF:53:1,2010-06-09T12:00:00Z,26.6493,-81.8810,2.03,0.23,1111122 
SCCF RECON,ioos:station:SCCF:53:1,2010-06-09T13:00:00Z,26.6493,-81.8810,2.1,0.23,1111122 
SCCF RECON,ioos:station:SCCF:53:1,2010-06-09T14:00:00Z,26.6493,-81.8810,2.169,0.23,1111122 
SCCF RECON,ioos:station:SCCF:53:1,2010-06-09T15:00:00Z,26.6493,-81.8810,2.224,0.23,1111122 
SCCF RECON,ioos:station:SCCF:53:1,2010-06-09T16:00:00Z,26.6493,-81.8810,2.292,0.23,1111122 
SCCF RECON,ioos:station:SCCF:53:1,2010-06-09T17:00:00Z,26.6493,-81.8810,2.335,0.23,1111122 
SCCF RECON,ioos:station:SCCF:53:1,2010-06-09T18:00:00Z,26.6493,-81.8810,2.34,0.23,1111122 
SCCF RECON,ioos:station:SCCF:53:1,2010-06-09T19:00:00Z,26.6493,-81.8810,2.281,0.24,1111122 
SCCF RECON,ioos:station:SCCF:53:1,2010-06-09T20:00:00Z,26.6493,-81.8810,2.22,0.23,1111122 
SCCF RECON,ioos:station:SCCF:53:1,2010-06-09T21:00:00Z,26.6493,-81.8810,2.16,0.23,1111122 
SCCF RECON,ioos:station:SCCF:53:1,2010-06-09T22:00:00Z,26.6493,-81.8810,2.099,0.23,1111122 
SCCF RECON,ioos:station:SCCF:53:1,2010-06-09T23:00:00Z,26.6493,-81.8810,2.048,0.23,1111122 
SCCF RECON,ioos:station:SCCF:53:1,2010-06-10T00:00:00Z,26.6493,-81.8810,1.998,0.23,1111122 
SCCF RECON,ioos:station:SCCF:53:1,2010-06-10T01:00:00Z,26.6493,-81.8810,1.95,0.23,1111122 
SCCF RECON,ioos:station:SCCF:53:1,2010-06-10T02:00:00Z,26.6493,-81.8810,1.93,0.23,1111122 
SCCF RECON,ioos:station:SCCF:53:1,2010-06-10T03:00:00Z,26.6493,-81.8810,1.93,0.23,1111122 
SCCF RECON,ioos:station:SCCF:53:1,2010-06-10T04:00:00Z,26.6493,-81.8810,1.98,0.23,1111122 
SCCF RECON,ioos:station:SCCF:53:1,2010-06-10T05:00:00Z,26.6493,-81.8810,2.02,0.23,1111122 
SCCF RECON,ioos:station:SCCF:53:1,2010-06-10T06:00:00Z,26.6493,-81.8810,2.062,0.23,1111122 
SCCF RECON,ioos:station:SCCF:53:1,2010-06-10T07:00:00Z,26.6493,-81.8810,2.11,0.23,1111122 
SCCF RECON,ioos:station:SCCF:53:1,2010-06-10T08:00:00Z,26.6493,-81.8810,2.13,0.23,1111122 
SCCF RECON,ioos:station:SCCF:53:1,2010-06-10T09:00:00Z,26.6493,-81.8810,2.13,0.23,1111122 
SCCF RECON,ioos:station:SCCF:53:1,2010-06-10T10:00:00Z,26.6493,-81.8810,2.11,0.23,1111122 
SCCF RECON,ioos:station:SCCF:53:1,2010-06-10T11:00:00Z,26.6493,-81.8810,2.08,0.23,1111122 
SCCF RECON,ioos:station:SCCF:53:1,2010-06-10T12:00:00Z,26.6493,-81.8810,2.063,0.23,1111122 
SCCF RECON,ioos:station:SCCF:53:1,2010-06-10T13:00:00Z,26.6493,-81.8810,2.09,0.23,1111122 
SCCF RECON,ioos:station:SCCF:53:1,2010-06-10T14:00:00Z,26.6493,-81.8810,2.149,0.23,1111122 
SCCF RECON,ioos:station:SCCF:53:1,2010-06-10T15:00:00Z,26.6493,-81.8810,2.219,0.23,1111122 
SCCF RECON,ioos:station:SCCF:53:1,2010-06-10T16:00:00Z,26.6493,-81.8810,2.28,0.23,1111122 
SCCF RECON,ioos:station:SCCF:53:1,2010-06-10T17:00:00Z,26.6493,-81.8810,2.34,0.24,1111122 
SCCF RECON,ioos:station:SCCF:53:1,2010-06-10T18:00:00Z,26.6493,-81.8810,2.384,0.24,1111122 
SCCF RECON,ioos:station:SCCF:53:1,2010-06-10T19:00:00Z,26.6493,-81.8810,2.382,0.24,1111122 
SCCF RECON,ioos:station:SCCF:53:1,2010-06-10T20:00:00Z,26.6493,-81.8810,2.321,0.23,1111122 
SCCF RECON,ioos:station:SCCF:53:1,2010-06-10T21:00:00Z,26.6493,-81.8810,2.251,0.23,1111122 
SCCF RECON,ioos:station:SCCF:53:1,2010-06-10T22:00:00Z,26.6493,-81.8810,2.191,0.23,1111122 
SCCF RECON,ioos:station:SCCF:53:1,2010-06-10T23:00:00Z,26.6493,-81.8810,2.13,0.23,1111122 
SCCF RECON,ioos:station:SCCF:53:1,2010-06-11T00:00:00Z,26.6493,-81.8810,2.08,0.23,1111122 
SCCF RECON,ioos:station:SCCF:53:1,2010-06-11T01:00:00Z,26.6493,-81.8810,2.03,0.23,1111122 
SCCF RECON,ioos:station:SCCF:53:1,2010-06-11T02:00:00Z,26.6493,-81.8810,1.98,0.23,1111122 
SCCF RECON,ioos:station:SCCF:53:1,2010-06-11T03:00:00Z,26.6493,-81.8810,1.95,0.23,1111122 
SCCF RECON,ioos:station:SCCF:53:1,2010-06-11T04:00:00Z,26.6493,-81.8810,1.98,0.23,1111122 
SCCF RECON,ioos:station:SCCF:53:1,2010-06-11T05:00:00Z,26.6493,-81.8810,2.03,0.23,1111122 
SCCF RECON,ioos:station:SCCF:53:1,2010-06-11T06:00:00Z,26.6493,-81.8810,2.08,0.23,1111122 
SCCF RECON,ioos:station:SCCF:53:1,2010-06-11T07:00:00Z,26.6493,-81.8810,2.13,0.23,1111122 
SCCF RECON,ioos:station:SCCF:53:1,2010-06-11T08:00:00Z,26.6493,-81.8810,2.18,0.23,1111122 
SCCF RECON,ioos:station:SCCF:53:1,2010-06-11T09:00:00Z,26.6493,-81.8810,2.2,0.23,1111122 
SCCF RECON,ioos:station:SCCF:53:1,2010-06-11T10:00:00Z,26.6493,-81.8810,2.2,0.24,1111122 
SCCF RECON,ioos:station:SCCF:53:1,2010-06-11T11:00:00Z,26.6493,-81.8810,2.18,0.23,1111122 
SCCF RECON,ioos:station:SCCF:53:1,2010-06-11T12:00:00Z,26.6493,-81.8810,2.148,0.23,1111122 
SCCF RECON,ioos:station:SCCF:53:1,2010-06-11T13:00:00Z,26.6493,-81.8810,2.14,0.23,1111122 
SCCF RECON,ioos:station:SCCF:53:1,2010-06-11T14:00:00Z,26.6493,-81.8810,2.192,0.23,1111122 
SCCF RECON,ioos:station:SCCF:53:1,2010-06-11T15:00:00Z,26.6493,-81.8810,2.271,0.23,1111122 
SCCF RECON,ioos:station:SCCF:53:1,2010-06-11T16:00:00Z,26.6493,-81.8810,2.345,0.24,1111122 
SCCF RECON,ioos:station:SCCF:53:1,2010-06-11T17:00:00Z,26.6493,-81.8810,2.42,0.24,1111122 
SCCF RECON,ioos:station:SCCF:53:1,2010-06-11T18:00:00Z,26.6493,-81.8810,2.473,0.24,1111122 
SCCF RECON,ioos:station:SCCF:53:1,2010-06-11T19:00:00Z,26.6493,-81.8810,2.5,0.24,1111122 
SCCF RECON,ioos:station:SCCF:53:1,2010-06-11T20:00:00Z,26.6493,-81.8810,2.47,0.24,1111122 